Location: Albany
(35.0000°S, 118.0000°E)
Time: 05:47:21
(UTC-04:00)

Vanguard 3 - Visible Passes

Search period start: 27 May 2015 00:00
Search period end: 06 June 2015 00:00
Orbit: 509 x 3270 km, 33.3° (Epoch: 25 May)

Date Brightness Start Highest point End Pass type
(mag) Time Alt. Az. Time Alt. Az. Time Alt. Az.
27 May 8.3 05:29:13 10° NNW 05:33:18 31° NNE 05:39:26 10° E visible
27 May 7.9 07:38:51 10° WNW 07:44:52 77° N 07:45:15 75° NE visible
27 May 10.5 09:49:47 10° W 09:49:54 11° W 09:49:54 11° W visible
27 May 11.2 14:37:53 16° N 14:37:53 16° N 14:41:49 10° N visible
28 May 7.7 06:27:02 10° WNW 06:31:55 59° NNE 06:36:20 25° E visible
28 May 9.1 08:37:32 10° W 08:40:58 38° W 08:40:58 38° W visible
28 May 11.5 13:28:49 10° NNE 13:28:49 10° NNE 13:28:56 10° NNE visible
29 May 7.7 07:25:30 10° W 07:31:05 78° N 07:32:03 68° ENE visible
29 May 10.4 09:36:20 10° W 09:36:42 12° W 09:36:42 12° W visible
29 May 11.4 14:24:20 11° N 14:24:20 11° N 14:24:46 10° N visible
30 May 7.5 06:13:37 10° WNW 06:18:13 63° NNE 06:23:08 20° E visible
30 May 8.8 08:24:10 10° W 08:27:46 42° W 08:27:46 42° W visible
31 May 7.5 07:12:09 10° W 07:17:21 79° N 07:18:52 58° ENE visible
31 May 10.2 09:22:57 10° W 09:23:30 13° W 09:23:30 13° W visible
01 Jun 7.2 06:00:14 10° WNW 06:04:33 68° N 06:09:58 16° E visible
01 Jun 8.5 08:10:48 10° W 08:14:37 47° WNW 08:14:37 47° WNW visible
02 Jun 7.4 06:58:49 10° W 07:03:40 78° N 07:05:45 47° ENE visible
02 Jun 10.1 09:09:35 10° W 09:10:23 15° W 09:10:23 15° W visible
03 Jun 7.0 05:46:51 10° WNW 05:50:58 71° N 05:56:53 11° E visible
03 Jun 8.1 07:57:28 10° W 08:01:33 53° WNW 08:01:33 53° WNW visible
04 Jun 7.2 06:45:28 10° W 06:50:01 75° N 06:52:43 36° ENE visible
04 Jun 9.9 08:56:16 10° W 08:57:22 17° W 08:57:22 17° W visible
05 Jun 6.8 05:33:27 10° W 05:37:22 73° N 05:43:05 10° E visible
05 Jun 7.9 07:44:08 10° W 07:48:35 56° NW 07:48:35 56° NW visible
